Regional Weather Roundup
Issued by NWS

Home | Current Version | Previous Version | Graphics & Text | Print | Product List | Glossary On
Versions: 1 2 3 4 5 6 7 8 9 10 11 12 13 14 15 16 17 18 19 20 21 22 23 24 25 26 27 28 29 30 31 32 33 34 35 36 37 38 39 40 41 42 43 44 45 46 47 48 49 50
000
ASUS43 KMPX 300301
RWRMN
WEATHER ROUNDUP FOR MINNESOTA
NATIONAL WEATHER SERVICE TWIN CITIES/CHANHASSEN MN
1000 PM CDT WED JUL 29 2015


NOTE: "FAIR" INDICATES FEW OR NO CLOUDS BELOW 12,000 FEET WITH NO
SIGNIFICANT WEATHER AND/OR OBSTRUCTIONS TO VISIBILITY. N/A MEANS
CURRENT SKY AND/OR WEATHER CONDITIONS ARE NOT AVAILABLE.

MNZ060>063-068>070-300400-
   Twin Cities Metro

CITY           SKY/WX    TMP DP  RH WIND       PRES   REMARKS
TWIN CITIES    CLEAR     75  55  49 W8        29.97R
ST PAUL        CLEAR     74  56  53 W8        29.96R
CRYSTAL        CLEAR     74  56  53 W9        29.95R
BLAINE         CLEAR     75  55  50 W8        29.96R
LAKEVILLE      CLEAR     68  55  64 SW7       29.99R
EDEN PRAIRIE   CLEAR     72  55  55 W7        29.97R
SOUTH ST PAUL  CLEAR     74  54  49 W7        29.96R
LAKE ELMO      FAIR      70  55  60 W6        29.97R
$$
MNZ001>005-007-008-013>017-022>024-027-028-300400-
   Northwest Minnesota

CITY           SKY/WX    TMP DP  RH WIND       PRES   REMARKS
BEMIDJI        PTCLDY    68  54  60 W10       29.90R
HALLOCK        CLEAR     66  57  72 W7        29.86R
ROSEAU         CLEAR     66  55  68 W8        29.84R
WARROAD        PTCLDY    66  57  72 W8        29.83R
THIEF RVR FALL PTCLDY    66  57  72 W6        29.89R
CROOKSTON      CLEAR     66  57  72 W7        29.91R
FOSSTON        PTCLDY    64  55  72 SW7       29.92R
DETROIT LAKES  PTCLDY    70  54  56 W9        29.97R
MOORHEAD       CLEAR     68  57  68 SW6       29.96R
PARK RAPIDS    PTCLDY    70  55  59 W12       29.92R
MAHNOMEN       MOCLDY    67  58  71 W7        29.92R
$$
MNZ006-009>011-018-025>026-300400-
   North Central Minnesota

CITY           SKY/WX    TMP DP  RH WIND       PRES   REMARKS
BAUDETTE       PTCLDY    66  53  63 W12       29.81R
FLAG ISLAND    CLOUDY    70  57  64 W17       29.79R
INTL FALLS     MOCLDY    63  55  75 W7        29.79R
WASKISH        PTCLDY    70  55  60 W14G20    29.85R
BIG FORK       PTCLDY    66  52  59 W3        29.85R
LONGVILLE      CLEAR     68  54  60 W5        29.90R
GRAND RAPIDS   PTCLDY    70  52  52 W8        29.87R
CRANE LAKE     CLOUDY    64  55  72 W8        29.80S
ORR            MOCLDY    66  52  59 W8G16     29.79S
COOK           CLOUDY    68  54  60 W7        29.83R
WALKER         FAIR      68  55  62 W8        29.90R
$$
MNZ012-019>021-037-300400-
   Northeast Minnesota

CITY           SKY/WX    TMP DP  RH WIND       PRES   REMARKS
DULUTH         PTCLDY    64  53  67 W9        29.85R
ELY            CLOUDY    68  54  60 W16G32    29.80R
HIBBING        PTCLDY    67  51  56 W6        29.84R
EVELETH        PTCLDY    68  50  52 W8        29.84R
DULUTH HARBOR  CLEAR     72  57  60 SW12      29.83R
TWO HARBORS    CLEAR     70  57  64 W8        29.80R
SILVER BAY     CLEAR     70  52  52 SW6       29.77R
GRAND MARAIS     N/A     50  46  86 W5        29.72R
G MARAIS ARPRT   N/A     63  54  72 W10G17    29.77R
$$
MNZ029>031-032-039>041-046>048-054>057-064-300400-
   West Central Minnesota

CITY           SKY/WX    TMP DP  RH WIND       PRES   REMARKS
FERGUS FALLS   CLEAR     66  55  68 W7        29.97R
WHEATON        CLEAR     66  55  68 W7        30.02R
MORRIS         CLEAR     66  57  72 W7        30.00R
ALEXANDRIA     CLEAR     70  56  61 W10       30.01R
ELBOW LAKE     FAIR      67  56  68 W8        29.99R
WADENA         MOCLDY    68  55  64 W8        29.95R
GLENWOOD       CLEAR     68  55  64 W10       30.01R
APPLETON       CLEAR     66  55  68 W9        30.02R
BENSON         CLEAR     64  55  72 W5        30.01R
ORTONVILLE     CLEAR     72  52  49 W5        30.03R
MADISON        CLEAR     68  54  60 W7        30.04R
WILLMAR        FAIR      70  57  64 W8        30.03R
$$
MNZ033>034-036-042>043-049>051-058-059-300400-
   Central Minnesota

CITY           SKY/WX    TMP DP  RH WIND       PRES   REMARKS
ST CLOUD       CLEAR     69  55  60 W8        29.96R
SAUK CENTRE    FAIR      67  56  67 W12       29.99R
PAYNESVILLE    CLEAR     61  55  83 SW8       30.00R
AITKIN         CLEAR     70  54  56 SW6       29.89R
PINE RIVER     PTCLDY    70  55  60 W3        29.95R
BRAINERD       PTCLDY    70  54  56 W12       29.93R
STAPLES        PTCLDY    66  55  68 W9        29.95R
LONG PRAIRIE   FAIR      68  55  64 SW8       29.98R
LITTLE FALLS   CLEAR     70  52  52 W5        29.95R
LITCHFIELD     CLEAR     72  57  60 W5        30.01R
BUFFALO        CLEAR     71  56  59 W6        29.99R
MAPLE LAKE     CLEAR     72  57  60 W8        29.98R
$$
MNZ037-044-045-052-053-300400-
   East Central Minnesota

CITY           SKY/WX    TMP DP  RH WIND       PRES   REMARKS
PRINCETON      CLEAR     70  55  60 SW5       29.95R
MORA           CLEAR     70  54  56 W6        29.95R
CAMBRIDGE      CLEAR     73  55  53 SW3       29.93R
RUSH CITY      CLEAR     68  55  64 SW3       29.94R
MOOSE LAKE     PTCLDY    64  52  63 SW6       29.87R
HINCKLEY       FAIR      64  55  72 SW6       29.91R
CLOQUET        PTCLDY    68  52  56 SW8       29.87R
MCGREGOR       CLEAR     70  54  56 W6        29.89R
$$
MNZ071>073-080-081-089-090-097-098-300400-
   Southwest Minnesota

CITY           SKY/WX    TMP DP  RH WIND       PRES   REMARKS
MONTEVIDEO     CLEAR     66  48  52 CALM      30.04R
GRANITE FALLS  CLEAR     64  58  81 SW9       30.05R
CANBY          CLEAR     68  55  64 SW6       30.06R
MARSHALL       CLEAR     64  55  72 W8        30.07R
REDWOOD FALLS  CLEAR     73  55  53 W12       30.02R
OLIVIA         CLEAR     63  52  67 W6        30.02R
PIPESTONE      CLEAR     64  61  88 CALM      30.10R
WINDOM         CLEAR     66  59  77 CALM      30.08R
WORTHINGTON    CLEAR     66  55  68 SW8       30.10R
JACKSON        CLEAR     68  59  73 SW6       30.09R
TRACY          CLEAR     68  59  73 W7        30.07R
SLAYTON        CLEAR     66  59  77 CALM      30.10R
$$
MNZ065>067-074>077-082>085-091>093-300400-
   South Central Minnesota

CITY           SKY/WX    TMP DP  RH WIND       PRES   REMARKS
MANKATO        CLEAR     70  55  60 W8        30.02R
NEW ULM        CLEAR     64  57  77 SW6       30.03R
ST JAMES       CLEAR     68  61  77 SW6       30.06R
FAIRMONT       CLEAR     68  54  60 SW7       30.06R
GLENCOE        CLEAR     69  58  69 SW5       30.00R
FARIBAULT      CLEAR     68  57  68 SW6       30.02R
OWATONNA       CLEAR     64  57  77 SW8       30.03R
WASECA         CLEAR     63  57  82 SW7       30.05R
ALBERT LEA     CLEAR     70  57  64 SW3       30.05R
$$
MNZ078>079-086>088-094>096-300400-
   Southeast Minnesota

CITY           SKY/WX    TMP DP  RH WIND       PRES   REMARKS
ROCHESTER      CLEAR     63  57  81 SW9       30.04R
RED WING       CLEAR     73  54  49 W7        29.96R
STANTON        CLEAR     70  55  57 SW7       29.98R
DODGE CENTER   PTCLDY    63  57  82 W7        30.04R
WINONA         CLEAR     73  55  53 W6        29.99R
AUSTIN         CLEAR     66  59  77 SW5       30.05R
PRESTON        CLEAR     67  56  67 SW9       30.05R
$$
ABBREVIATIONS USED IN REMARKS
   TC - TEMPERATURES IN CELSIUS
  WCI - WIND CHILL INDEX
   HX - HEAT INDEX
  VSB - VISIBILITY
$$



USA.gov is the U.S. government's official web portal to all federal, state and local government web resources and services.